Location: OLV Amersfoort
(52.1552°N, 5.3872°E)
Time: 12:38:49
(UTC+02:00)

ISS - Visible Passes

Search period start: 26 May 2016 00:00
Search period end: 05 June 2016 00:00
Orbit: 402 x 404 km, 51.6° (Epoch: 26 May)

Date Brightness Start Highest point End Pass type
(mag) Time Alt. Az. Time Alt. Az. Time Alt. Az.
26 May -3.4 01:25:55 25° WSW 01:27:36 64° SSE 01:30:52 10° E visible
26 May -3.5 03:00:44 10° W 03:04:00 81° S 03:07:17 10° E visible
26 May -2.8 04:37:13 10° W 04:40:16 37° SSW 04:43:19 10° SE visible
26 May -1.6 22:57:10 10° S 22:59:01 14° SE 23:00:52 10° ESE visible
27 May -3.2 00:31:44 10° SW 00:34:54 49° SSE 00:38:05 10° E visible
27 May -3.5 02:07:59 10° W 02:11:15 84° S 02:14:32 10° E visible
27 May -3.2 03:44:25 10° W 03:47:37 51° SSW 03:50:48 10° ESE visible
27 May -2.8 23:39:14 10° SW 23:42:15 35° SSE 23:45:17 10° E visible
28 May -3.5 01:15:14 10° W 01:18:30 80° S 01:21:47 10° E visible
28 May -3.5 02:51:39 10° W 02:54:54 66° SSW 02:58:09 10° ESE visible
28 May -2.1 04:28:21 10° W 04:31:00 23° SSW 04:33:38 10° SSE visible
28 May -2.2 22:46:55 10° SSW 22:49:38 24° SSE 22:52:21 10° E visible
29 May -3.5 00:22:30 10° WSW 00:25:45 69° SSE 00:29:01 10° E visible
29 May -3.5 01:58:53 10° W 02:02:10 78° S 02:05:26 10° ESE visible
29 May -2.7 03:35:25 10° W 03:38:24 33° SSW 03:41:22 10° SE visible
29 May -3.3 23:29:50 10° WSW 23:33:02 53° SSE 23:36:15 10° E visible
30 May -3.5 01:06:07 10° W 01:09:24 84° S 01:12:41 10° E visible
30 May -3.1 02:42:35 10° W 02:45:44 46° SSW 02:48:53 10° SE visible
30 May -1.5 04:19:56 10° WSW 04:21:36 13° SW 04:23:15 10° S visible
30 May -2.8 22:37:17 10° SW 22:40:21 39° SSE 22:43:26 10° E visible
31 May -3.5 00:13:21 10° W 00:16:38 82° S 00:19:54 10° E visible
31 May -3.4 01:49:47 10° W 01:53:02 62° SSW 01:56:15 10° ESE visible
31 May -1.9 03:26:34 10° W 03:28:40 20° SW 03:28:40 20° SW visible
31 May -3.4 23:20:36 10° WSW 23:23:52 73° SSE 23:27:08 10° E visible
01 Jun -3.5 00:57:00 10° W 01:00:17 75° S 01:03:24 11° ESE visible
01 Jun -2.3 02:33:33 10° W 02:35:55 28° SW 02:35:55 28° SW visible
02 Jun -3.4 00:04:13 10° W 00:07:30 83° S 00:10:47 10° E visible
02 Jun -3.0 01:40:41 10° W 01:43:48 42° SSW 01:44:08 40° S visible
02 Jun -3.4 23:11:26 10° W 23:14:42 83° S 23:17:59 10° E visible
03 Jun -3.3 00:47:52 10° W 00:51:05 57° SSW 00:52:39 27° SE visible
03 Jun -1.0 02:24:46 10° W 02:25:13 12° WSW 02:25:13 12° WSW visible
03 Jun -3.4 23:55:04 10° W 23:58:20 72° SSW 00:01:18 12° ESE visible
04 Jun -2.0 01:31:40 10° W 01:33:53 25° SW 01:33:53 25° SW visible
04 Jun -3.4 23:02:16 10° W 23:05:32 81° S 23:08:50 10° E visible
